| time (UTC) | temp F | wind direction | speed knots | gust knots | rain 1hr in | rain 24hr in | rain mn in | humidity % | barometer mb |
| 20260505070012 | 46 | 329 | 0.0 | 4.3 | 0.00 | 0.00 | 0.00 | 58 | 1015.5 |
| 20260505064524 | 47 | 342 | 1.7 | 4.3 | 0.00 | 0.00 | 0.00 | 58 | 1015.4 |
| 20260505063035 | 47 | 69 | 2.6 | 4.3 | 0.00 | 0.00 | 0.00 | 57 | 1015.1 |
| 20260505061528 | 48 | 26 | 1.7 | 6.1 | 0.00 | 0.00 | 0.00 | 56 | 1014.9 |
| 20260505060048 | 48 | 47 | 2.6 | 3.5 | 0.00 | 0.00 | 0.00 | 57 | 1014.8 |
| 20260505054526 | 48 | 66 | 3.5 | 6.1 | 0.00 | 0.00 | 0.00 | 56 | 1014.5 |
| 20260505053020 | 49 | 5 | 3.5 | 7.8 | 0.00 | 0.00 | 0.00 | 56 | 1014.4 |
| 20260505041531 | 52 | 9 | 5.2 | 9.6 | 0.00 | 0.00 | 0.00 | 50 | 1014.0 |
| 20260505040027 | 54 | 9 | 7.0 | 13.0 | 0.00 | 0.00 | 0.00 | 47 | 1013.8 |
| 20260505034525 | 55 | 352 | 7.0 | 11.3 | 0.00 | 0.00 | 0.00 | 47 | 1013.5 |
| 20260505033022 | 55 | 352 | 6.1 | 9.6 | 0.00 | 0.00 | 0.00 | 47 | 1013.2 |
| 20260505031518 | 56 | 352 | 7.0 | 11.3 | 0.00 | 0.00 | 0.00 | 47 | 1013.0 |
| 20260505030028 | 57 | 318 | 6.1 | 11.3 | 0.00 | 0.00 | 0.00 | 45 | 1012.5 |
| 20260505024515 | 57 | 321 | 5.2 | 11.3 | 0.00 | 0.00 | 0.00 | 45 | 1012.3 |
| 20260505023015 | 58 | 317 | 3.5 | 9.6 | 0.00 | 0.00 | 0.00 | 44 | 1012.0 |
| 20260505020008 | 60 | 343 | 9.6 | 14.8 | 0.00 | 0.00 | 0.00 | 42 | 1011.6 |
| 20260505014511 | 61 | 332 | 9.6 | 16.5 | 0.00 | 0.00 | 0.00 | 42 | 1011.3 |
| 20260505013034 | 61 | 325 | 10.4 | 15.6 | 0.00 | 0.00 | 0.00 | 41 | 1011.2 |
| 20260505011530 | 62 | 346 | 7.8 | 16.5 | 0.00 | 0.00 | 0.00 | 42 | 1011.2 |
| 20260505010022 | 62 | 350 | 11.3 | 15.6 | 0.00 | 0.00 | 0.00 | 41 | 1011.1 |
| 20260505003027 | 63 | 339 | 8.7 | 15.6 | 0.00 | 0.00 | 0.00 | 42 | 1011.1 |
| 20260505001514 | 62 | 337 | 10.4 | 18.2 | 0.00 | 0.00 | 0.00 | 41 | 1011.0 |
| 20260505000012 | 63 | 348 | 8.7 | 13.0 | 0.00 | 0.00 | 0.00 | 42 | 1010.9 |
| 20260504234527 | 63 | 13 | 10.4 | 15.6 | 0.00 | 0.00 | 0.00 | 40 | 1010.8 |
| 20260504233024 | 64 | 349 | 8.7 | 17.4 | 0.00 | 0.00 | 0.00 | 40 | 1010.7 |
| 20260504231525 | 65 | 21 | 8.7 | 14.8 | 0.00 | 0.00 | 0.00 | 41 | 1010.7 |
| 20260504230023 | 65 | 28 | 9.6 | 16.5 | 0.00 | 0.00 | 0.00 | 39 | 1010.6 |
| 20260504224521 | 66 | 22 | 11.3 | 15.6 | 0.00 | 0.00 | 0.00 | 38 | 1010.7 |
| 20260504223020 | 66 | 351 | 9.6 | 14.8 | 0.00 | 0.00 | 0.00 | 40 | 1010.7 |
| 20260504221526 | 66 | 9 | 8.7 | 14.8 | 0.00 | 0.00 | 0.00 | 37 | 1010.8 |
| 20260504220016 | 66 | 350 | 8.7 | 13.9 | 0.00 | 0.00 | 0.00 | 38 | 1010.9 |
| 20260504214526 | 65 | 345 | 8.7 | 14.8 | 0.00 | 0.00 | 0.00 | 40 | 1011.1 |
| 20260504213029 | 65 | 352 | 7.8 | 13.9 | 0.00 | 0.00 | 0.00 | 39 | 1011.3 |
| 20260504211534 | 65 | 340 | 7.0 | 17.4 | 0.00 | 0.00 | 0.00 | 38 | 1011.4 |
| 20260504210026 | 65 | 5 | 9.6 | 12.2 | 0.00 | 0.00 | 0.00 | 41 | 1011.6 |
| 20260504204524 | 64 | 350 | 7.0 | 12.2 | 0.00 | 0.00 | 0.00 | 44 | 1011.5 |
| 20260504203021 | 64 | 17 | 7.8 | 13.0 | 0.00 | 0.00 | 0.00 | 40 | 1011.7 |
| 20260504200021 | 63 | 59 | 5.2 | 8.7 | 0.00 | 0.00 | 0.00 | 41 | 1011.9 |
| 20260504193026 | 62 | 352 | 4.3 | 7.8 | 0.00 | 0.00 | 0.00 | 43 | 1012.3 |
| 20260504191528 | 61 | 9 | 2.6 | 8.7 | 0.00 | 0.00 | 0.00 | 45 | 1012.6 |
| 20260504190028 | 61 | 5 | 6.1 | 9.6 | 0.00 | 0.00 | 0.00 | 44 | 1012.7 |
| 20260504184541 | 60 | 34 | 6.1 | 8.7 | 0.00 | 0.00 | 0.00 | 46 | 1012.8 |
| 20260504181524 | 59 | 351 | 4.3 | 8.7 | 0.00 | 0.00 | 0.00 | 49 | 1013.1 |
| 20260504174520 | 57 | 26 | 7.8 | 10.4 | 0.00 | 0.00 | 0.00 | 53 | 1013.4 |
| 20260504173017 | 57 | 352 | 5.2 | 8.7 | 0.00 | 0.00 | 0.00 | 52 | 1013.6 |
| 20260504171513 | 57 | 13 | 5.2 | 9.6 | 0.00 | 0.00 | 0.00 | 50 | 1013.6 |
| 20260504081515 | 52 | 142 | 3.5 | 9.6 | 0.00 | 0.00 | 0.00 | 51 | 1012.4 |